Hourly Data Report for October 02, 2013

All times are specified in Local Standard Time (LST). Add 1 hour to adjust for Daylight Saving Time where and when it is observed.

SAINT JOHN A
NEW BRUNSWICK

45°18'58.000" N
65°53'24.000" W
108.80 m
8104901
71609
YSJ

Download Data

Hourly Data (October 2013)
Hourly Data Report for October 2, 2013
Temp Definition
°C
Dew Point Temp Definition
°C
Rel Hum Definition
%
Wind Dir Definition
10's deg

Wind Spd Definition
km/h
Visibility Definition
km
Stn Press Definition
kPa
Hmdx Definition


Wind Chill Definition


Weather Definition


TIME
00:00 Legend Double Dagger 7.5 7.5 100 6 1 0.6 99.60     Fog
01:00 Legend Double Dagger 7.0 7.0 100 17 3 0.8 99.63     Fog
02:00 Legend Double Dagger 7.4 7.4 100 18 2 0.8 99.59     Fog
03:00 Legend Double Dagger 7.8 7.8 100 18 3 0.8 99.54     Fog
04:00 Legend Double Dagger 9.2 9.2 100 9 2 1.2 99.53     Fog
05:00 Legend Double Dagger 11.2 11.2 100 21 6 0.6 99.54     Fog
06:00 Legend Double Dagger 11.3 11.3 100 22 9 0.6 99.54     Fog
07:00 Legend Double Dagger 11.1 11.1 100 30 3 0.4 99.54     Fog
08:00 Legend Double Dagger 11.3 11.3 100 19 4 0.6 99.54     Fog
09:00 Legend Double Dagger 12.5 12.5 100 20 5 0.8 99.51     Fog
10:00 Legend Double Dagger 15.8 15.5 98 20 12 24.1 99.48     LegendNANA
11:00 Legend Double Dagger 19.0 14.7 76 22 13 24.1 99.44     Mainly Clear
12:00 Legend Double Dagger 19.8 14.7 72 21 17 24.1 99.37     LegendNANA
13:00 Legend Double Dagger 20.9 14.2 65 22 22 24.1 99.29     LegendNANA
14:00 Legend Double Dagger 20.5 14.3 67 22 27 24.1 99.21     Clear
15:00 Legend Double Dagger 20.4 13.5 64 23 22 24.1 99.18     LegendNANA
16:00 Legend Double Dagger 19.2 13.5 69 22 24 24.1 99.15     LegendNANA
17:00 Legend Double Dagger 18.2 13.8 75 22 15 24.1 99.18     Mainly Clear
18:00 Legend Double Dagger 15.2 13.1 87 21 9 24.1 99.21     LegendNANA
19:00 Legend Double Dagger 13.7 12.8 94 20 7 24.1 99.27     LegendNANA
20:00 Legend Double Dagger 13.0 11.6 91 23 7 24.1 99.31     Clear
21:00 Legend Double Dagger 11.8 10.7 93 19 9 24.1 99.37     LegendNANA
22:00 Legend Double Dagger 10.9 10.0 94 20 8 24.1 99.39     LegendNANA
23:00 Legend Double Dagger 16.0 9.5 65 29 14 24.1 99.45     Clear

Notes on Data Quality.

Legend

  • E = Estimated
  • M = Missing
  • NA = Not Available
  • ‡ = Partner data that is not subject to review by the National Climate Archives
Date modified: